Location: East Guldeford
(50.9500°N, 0.7500°E)
Time: 09:08:17
(UTC+00:00)

Nadezhda 1 Rocket - Pass Details

Date: 12 May 2021
Orbit: 940 x 1006 km, 83.0° (Epoch: 16 June)

Event Time Altitude Azimuth Distance (km) Brightness Sun altitude
Exits shadow 21:43:59 17° 178° (S) 2,289 5.4 -15.1°
Maximum altitude 21:49:01 74° 96° (E) 1,021 4.0 -15.5°
Drops below altitude 10° 21:55:14 10° 13° (NNE) 2,721 7.0 -16.0°
Sets 21:57:44 0° 12° (NNE) 3,663 7.8 -16.2°
